Location: Unspecified
(61.6667°N, 50.8167°E)
Time: 20:25:23
(UTC+02:00)

ISS - All Passes

Search period start: 18 July 2018 00:00
Search period end: 28 July 2018 00:00
Orbit: 402 x 408 km, 51.6° (Epoch: 18 July)

Date Brightness Start Highest point End Pass type
(mag) Time Alt. Az. Time Alt. Az. Time Alt. Az.
18 Jul - 00:54:27 10° SW 00:56:08 13° SSW 00:57:48 10° SSE daylight
18 Jul - 22:27:08 10° SSW 22:28:45 13° SSE 22:30:22 10° SE visible
19 Jul - 00:02:25 10° SW 00:04:19 15° S 00:06:13 10° SSE visible
19 Jul - 21:35:55 10° S 21:36:57 11° SSE 21:38:00 10° SE visible
19 Jul - 23:10:32 10° SW 23:12:30 15° S 23:14:29 10° SE visible
20 Jul - 00:47:11 10° SW 00:48:02 11° SSW 00:48:52 10° S daylight
20 Jul - 22:18:45 10° SSW 22:20:39 15° S 22:22:35 10° SE visible
20 Jul - 23:54:42 10° SW 23:56:14 13° SSW 23:57:45 10° SSE visible
21 Jul - 21:27:06 10° SSW 21:28:49 14° S 21:30:33 10° SE visible
21 Jul - 23:02:34 10° SW 23:04:24 14° S 23:06:13 10° SSE visible
22 Jul - 20:35:41 10° S 20:36:59 12° SSE 20:38:18 10° SE daylight
22 Jul - 22:10:35 10° SW 22:12:32 15° S 22:14:29 10° SSE visible
23 Jul - 21:18:43 10° SSW 21:20:39 15° S 21:22:37 10° SE visible
23 Jul - 22:54:53 10° SW 22:56:13 12° SSW 22:57:33 10° S visible
24 Jul - 20:26:58 10° SSW 20:28:47 14° S 20:30:36 10° SE daylight
24 Jul - 22:02:37 10° SW 22:04:21 14° S 22:06:05 10° SSE visible
25 Jul - 19:35:24 10° SSW 19:36:54 13° SSE 19:38:23 10° SE daylight
25 Jul - 21:10:33 10° SW 21:12:28 15° S 21:14:23 10° SSE visible
26 Jul - 18:44:18 10° S 18:45:02 11° SSE 18:45:46 10° SE daylight
26 Jul - 20:18:36 10° SW 20:20:33 15° S 20:22:30 10° SE daylight
26 Jul - 21:55:01 10° SW 21:56:05 11° SSW 21:57:09 10° S visible
27 Jul - 19:26:46 10° SSW 19:28:38 14° S 19:30:31 10° SE daylight
27 Jul - 21:02:35 10° SW 21:04:12 13° SSW 21:05:48 10° SSE visible
